DELTA 1 DEB, 27727

Orbit data source: Space-Track

DELTA 1 DEB, 27727 is space debris in LEO originally from a launch on Thu, 29 Jul 1976 UTC launched from the Air Force Western Test Range (AFWTR). Debris objects in space refer to the collection of defunct objects orbiting the Earth. Examples of debris include non-operational satellites, rocket bodies, and fragments generated from explosions, collisions, or faulty payload assembly.

Loading next visibility...
Identifier
27727, 1976-077FS
Orbit
LEO
Country
Flag of USUS
Related business
Manufacturer
Unknown
Mission
Spacecraft
Bus & Motor
Unknown
Mass
Unknown
Launch date (UTC)
1976-07-29 (50 years ago)
Launch vehicle
Unknown
Launch site
Air Force Western Test Range (AFWTR)
Object type
Payload
Rocket body
Debris
Shape & HBR
Unknown shape, 0.1 m
Radar Cross Section
Small (<0.1 m²)

Expand to show TLE details & history
Last TLE update: 1 day ago

TLE from 1 day ago
0 DELTA 1 DEB
1 27727U 76077FS  26044.22347253 -.00000083  00000-0 -62437-3 0  9994
2 27727 102.7115 144.4238 0411853 356.3765  29.6631 11.68369709497105
Epoch: 2026-02-13T05:21Z
TLE epoch observation values (Epoch: 2026-02-13T05:21:48.026Z)
Latitude
27.76576°
Longitude
-86.07707°
Altitude
1,538.616 km
Speed
7.224 km/s
True Right ascension
09h 10m 32s
True Declination
27° 38' 18"
Sunlit
Object was in full shadow at epoch
Visualization orbit readout
Latitude
Unknown
Longitude
Unknown
Altitude
Unknown
Speed
Unknown
Apparent Right ascension
Unknown
Apparent Declination
Unknown
Sunlit
N/A
Visualization observer readout
Local Sidereal Time
19:51:07
Azimuth
Unknown
Elevation
Unknown
Doppler factor
Unknown
Orbital elements
Apogee altitude
2,161.148 km
Perigee altitude
1,485.585 km
Semi-major axis
8,201.504 km
Eccentricity
0.04119
Inclination
102.7115°
RAAN
144.4238°
Arg. of periapsis
356.3765°
True anomaly
32.10719°
Mean anomaly
29.6631°
Eccentric anomaly
30.87401°
Mean motion
2.92215 °/min
Orbital period
123.2 mins
BSTAR
-0.00062437
Loading maneuver chart data...
Computing Atmospheric mass density...
Loading historical data...
Loading historical data...
Loading historical data...
Loading historical data...
Loading historical data...
Loading historical data...
Loading historical data...

Documentation

Showing up to 5 results
|